Stündliche Wetter Holovets'ko

Heute, 22 Juni, Dienstag

Zeit Temperatur Niederschläge Wind Luftdruck Luftfeuchtigkeit
00:00 +21°C° 0 mm 1 m/S 702 mmHg 98%
01:00 +20°C° 0 mm 1 m/S 701 mmHg 97%
02:00 +18°C° 0 mm 1 m/S 701 mmHg 100%
03:00 +19°C° 0 mm 1 m/S 702 mmHg 92%
04:00 +19°C° 0 mm 1 m/S 702 mmHg 93%
05:00 +18°C° 0 mm 1 m/S 701 mmHg 93%
06:00 +18°C° 0 mm 1 m/S 702 mmHg 93%
07:00 +19°C° 0 mm 1 m/S 702 mmHg 96%
08:00 +21°C° 0 mm 1 m/S 703 mmHg 97%
09:00 +22°C° 0 mm 1 m/S 703 mmHg 96%
10:00 +24°C° 0 mm 1 m/S 703 mmHg 94%
11:00 +25°C° 0 mm 1 m/S 704 mmHg 92%
12:00 +26°C° 0 mm 1 m/S 704 mmHg 90%
13:00 +26°C° 0 mm 1 m/S 704 mmHg 86%
14:00 +26°C° 0.6 mm 2 m/S 704 mmHg 86%
15:00 +27°C° 0 mm 1 m/S 704 mmHg 80%
16:00 +27°C° 0 mm 1 m/S 703 mmHg 79%
17:00 +27°C° 0 mm 1 m/S 703 mmHg 82%
18:00 +26°C° 0 mm 1 m/S 703 mmHg 87%
19:00 +26°C° 0 mm 1 m/S 703 mmHg 94%
20:00 +23°C° 0 mm 0 m/S 703 mmHg 91%
21:00 +25°C° 0 mm 1 m/S 703 mmHg 92%
22:00 +24°C° 0 mm 1 m/S 704 mmHg 93%
23:00 +23°C° 0 mm 1 m/S 703 mmHg 90%

Morgen, 23 Juni, Mittwoch

Zeit Temperatur Niederschläge Wind Luftdruck Luftfeuchtigkeit
00:00 +21°C° 0 mm 2 m/S 703 mmHg 89%
01:00 +22°C° 0 mm 1 m/S 703 mmHg 92%
02:00 +21°C° 0 mm 1 m/S 703 mmHg 94%
03:00 +21°C° 0 mm 1 m/S 703 mmHg 96%
04:00 +21°C° 0 mm 1 m/S 703 mmHg 98%
05:00 +20°C° 0 mm 1 m/S 703 mmHg 100%
06:00 +18°C° 0 mm 0 m/S 703 mmHg 100%
07:00 +19°C° 0 mm 0 m/S 704 mmHg 100%
08:00 +20°C° 0 mm 0 m/S 704 mmHg 100%
09:00 +22°C° 0 mm 0 m/S 705 mmHg 100%
10:00 +23°C° 0 mm 0 m/S 706 mmHg 98%
11:00 +24°C° 0 mm 0 m/S 706 mmHg 91%
12:00 +27°C° 0 mm 1 m/S 706 mmHg 86%
13:00 +27°C° 0 mm 3 m/S 706 mmHg 86%
14:00 +27°C° 0 mm 1 m/S 706 mmHg 83%
15:00 +27°C° 0 mm 1 m/S 706 mmHg 85%
16:00 +27°C° 0 mm 1 m/S 706 mmHg 84%
17:00 +27°C° 0.1 mm 2 m/S 706 mmHg 85%
18:00 +25°C° 0.6 mm 4 m/S 706 mmHg 81%
19:00 +25°C° 0 mm 2 m/S 705 mmHg 90%
20:00 +22°C° 0 mm 0 m/S 706 mmHg 85%
21:00 +23°C° 0 mm 2 m/S 706 mmHg 88%
22:00 +22°C° 0 mm 1 m/S 706 mmHg 95%
23:00 +22°C° 0 mm 1 m/S 706 mmHg 100%

übermorgen, 24 Juni, Donnerstag

Zeit Temperatur Niederschläge Wind Luftdruck Luftfeuchtigkeit
00:00 +21°C° 0 mm 1 m/S 706 mmHg 100%
01:00 +19°C° 0 mm 0 m/S 706 mmHg 100%
02:00 +19°C° 0 mm 0 m/S 706 mmHg 100%
03:00 +19°C° 0 mm 0 m/S 706 mmHg 100%
04:00 +18°C° 0 mm 0 m/S 706 mmHg 100%
05:00 +18°C° 0 mm 0 m/S 706 mmHg 100%
06:00 +18°C° 0 mm 0 m/S 706 mmHg 100%
07:00 +18°C° 0 mm 0 m/S 706 mmHg 100%
08:00 +18°C° 0 mm 0 m/S 706 mmHg 100%
09:00 +19°C° 0 mm 0 m/S 707 mmHg 100%
10:00 +22°C° 0 mm 1 m/S 707 mmHg 100%
11:00 +24°C° 0 mm 1 m/S 707 mmHg 100%
12:00 +26°C° 0 mm 1 m/S 708 mmHg 96%
13:00 +27°C° 0 mm 1 m/S 707 mmHg 91%
14:00 +27°C° 0 mm 1 m/S 707 mmHg 88%
15:00 +28°C° 0 mm 1 m/S 707 mmHg 82%
16:00 +28°C° 0 mm 2 m/S 707 mmHg 86%
17:00 +27°C° 0.1 mm 2 m/S 707 mmHg 88%
18:00 +27°C° 0 mm 2 m/S 706 mmHg 91%
19:00 +26°C° 0 mm 2 m/S 706 mmHg 96%
20:00 +25°C° 0.1 mm 1 m/S 706 mmHg 100%
21:00 +25°C° 0 mm 1 m/S 706 mmHg 100%
22:00 +24°C° 0 mm 1 m/S 706 mmHg 100%
23:00 +23°C° 0 mm 1 m/S 706 mmHg 100%

25 Juni, Freitag

Zeit Temperatur Niederschläge Wind Luftdruck Luftfeuchtigkeit
00:00 +23°C° 0 mm 1 m/S 706 mmHg 100%
01:00 +21°C° 0 mm 1 m/S 705 mmHg 100%
02:00 +21°C° 0 mm 1 m/S 705 mmHg 100%
03:00 +21°C° 0 mm 1 m/S 705 mmHg 100%
04:00 +21°C° 0 mm 1 m/S 705 mmHg 100%
05:00 +21°C° 0 mm 1 m/S 704 mmHg 100%
06:00 +21°C° 0 mm 1 m/S 704 mmHg 100%
07:00 +22°C° 0 mm 1 m/S 705 mmHg 100%
08:00 +24°C° 0 mm 1 m/S 705 mmHg 98%
09:00 +25°C° 0 mm 2 m/S 705 mmHg 93%
10:00 +26°C° 0 mm 3 m/S 706 mmHg 90%
11:00 +27°C° 0 mm 3 m/S 705 mmHg 87%
12:00 +28°C° 0 mm 3 m/S 705 mmHg 88%
13:00 +28°C° 0 mm 4 m/S 705 mmHg 89%
14:00 +28°C° 0 mm 4 m/S 704 mmHg 88%
15:00 +28°C° 0 mm 3 m/S 705 mmHg 88%
16:00 +28°C° 0.3 mm 3 m/S 704 mmHg 88%
17:00 +23°C° 0.1 mm 11 m/S 705 mmHg 84%
18:00 +21°C° 0.1 mm 8 m/S 704 mmHg 81%
19:00 +20°C° 0 mm 3 m/S 703 mmHg 87%
20:00 +21°C° 0 mm 1 m/S 703 mmHg 91%
21:00 +21°C° 0 mm 2 m/S 702 mmHg 88%
22:00 +20°C° 0 mm 2 m/S 702 mmHg 88%
23:00 +21°C° 0 mm 1 m/S 702 mmHg 85%

26 Juni, Samstag

Zeit Temperatur Niederschläge Wind Luftdruck Luftfeuchtigkeit
00:00 +21°C° 0 mm 1 m/S 703 mmHg 86%
01:00 +19°C° 0 mm 2 m/S 702 mmHg 91%
02:00 +20°C° 0 mm 1 m/S 702 mmHg 91%
03:00 +19°C° 0 mm 1 m/S 702 mmHg 92%
04:00 +19°C° 0 mm 1 m/S 702 mmHg 95%
05:00 +19°C° 0 mm 1 m/S 702 mmHg 96%
06:00 +19°C° 0 mm 1 m/S 702 mmHg 100%
07:00 +18°C° 0 mm 0 m/S 702 mmHg 100%
08:00 +21°C° 0 mm 1 m/S 702 mmHg 100%
09:00 +20°C° 0 mm 1 m/S 703 mmHg 100%
10:00 +20°C° 0 mm 1 m/S 703 mmHg 100%
11:00 +21°C° 0 mm 3 m/S 703 mmHg 100%
12:00 +22°C° 0 mm 3 m/S 703 mmHg 97%
13:00 +22°C° 0 mm 3 m/S 703 mmHg 92%
14:00 +22°C° 0 mm 3 m/S 703 mmHg 88%
15:00 +22°C° 0 mm 4 m/S 703 mmHg 86%
16:00 +22°C° 0 mm 3 m/S 703 mmHg 90%
17:00 +21°C° 0 mm 4 m/S 703 mmHg 96%
18:00 +19°C° 0 mm 5 m/S 703 mmHg 95%
19:00 +19°C° 0 mm 4 m/S 703 mmHg 96%
20:00 +18°C° 0 mm 3 m/S 703 mmHg 98%
21:00 +17°C° 0 mm 2 m/S 703 mmHg 100%
22:00 +16°C° 0 mm 1 m/S 703 mmHg 100%
23:00 +16°C° 0 mm 1 m/S 703 mmHg 100%

27 Juni, Sonntag

Zeit Temperatur Niederschläge Wind Luftdruck Luftfeuchtigkeit
00:00 +16°C° 0 mm 2 m/S 703 mmHg 100%
01:00 +15°C° 0 mm 2 m/S 703 mmHg 100%
02:00 +15°C° 0 mm 1 m/S 703 mmHg 100%
03:00 +15°C° 0 mm 2 m/S 703 mmHg 100%
04:00 +15°C° 0 mm 2 m/S 703 mmHg 100%
05:00 +15°C° 0 mm 2 m/S 703 mmHg 100%
06:00 +14°C° 0 mm 3 m/S 704 mmHg 100%
07:00 +14°C° 0 mm 3 m/S 704 mmHg 100%
08:00 +16°C° 0 mm 3 m/S 705 mmHg 100%
09:00 +17°C° 0 mm 3 m/S 705 mmHg 99%
10:00 +17°C° 0 mm 3 m/S 705 mmHg 99%
11:00 +17°C° 0 mm 3 m/S 705 mmHg 97%
12:00 +18°C° 0 mm 4 m/S 706 mmHg 94%
13:00 +19°C° 0 mm 4 m/S 706 mmHg 94%
14:00 +20°C° 0 mm 3 m/S 706 mmHg 93%
15:00 +20°C° 0 mm 4 m/S 705 mmHg 93%
16:00 +20°C° 0 mm 3 m/S 705 mmHg 92%
17:00 +20°C° 0.3 mm 3 m/S 706 mmHg 98%
18:00 +19°C° 0 mm 3 m/S 706 mmHg 96%
19:00 +20°C° 0 mm 3 m/S 706 mmHg 93%
20:00 +19°C° 0 mm 2 m/S 706 mmHg 96%
21:00 +18°C° 0 mm 2 m/S 706 mmHg 98%
22:00 +17°C° 0 mm 2 m/S 706 mmHg 100%
23:00 +17°C° 0 mm 2 m/S 706 mmHg 100%
Mehr zeigen

Wir brauchen deine Erlaubnis

Meteoprog und unser Service Anbieter werden persönliche Daten aufbewahren, so wie Cookies, Geräte Bezeichnung oder ähnliche Technologien von deinem Gerät und Prozess, so wie Persönliche Daten Inhalte und Werbungen, genauso wie social Media und den Verkehr zu analysieren.

  • Aufbewahrung und/oder Zugang zu deiner Geräte Informationen.

    Cookies, Geräte Bezeichnung oder andere Informationen, können aufbewahrt oder Zugang zu deinem Gerät erhalten, für den Grund, der oben angegeben wird.

  • Personalisierte Werbung und Inhalte, Messungen, Einblick in das Publikum und Produkt Entwicklung.

    Werbungen und Inhalte können personalisiert werden, basierend auf ein Profil. Mehr Daten können besser personalisierte Werbungen und Inhalte hinzufügen. Werbung und Inhalte können gezeigt und gemessen werden. Einblicke über das Publikum, welche die Werbung gesehen haben und den Inhalt, können abgeleitet werden. So wie Daten können genutzt werden, um es zu verbessern oder die Benutzer Erfahrung zu verbessern das System und die Software.

Wenn du “Ich stimme zu” klickst, erlaubst du uns, die Cookies zu benutzen die Geräte Bezeichnung, den Web oder ähnliche Technologien zu benutzen. Deine Settings, können in deinem Gerät bei deinem Browser geändert werden.

Für den bestimmten Zweck, berechtigten Interessen beruhen darauf, mehr als auf den Inhalt. Du kannst mehr darüber in unseren Privaten und Cookie Politik lesen.